Погода в Васко-да-Гаме

Индия     15°23′34″N   73°49′03″E
темп.,
°C
ветер,
м/с
пор.,
м/с
влажн.,
%
обл.,
%
осадки,
мм/ч
давл.,
гПа
погр.,
м
20 мая, пт
пт2023:30+27зсз2471100 5.4 1008499
02:30+27з6875100 3.4 1006856
05:30+26зюз7976100 4.4 1008887
08:30+25з7871100 1.0 1010687
11:30+23з5682100 5.3 1011507
14:30+24сз4684100 1.9 1009632
17:30+23с2387100 2.7 1008482
20:30+23юв2285100 0.2 1008356
21 мая, сб
сб2123:30+23в4486100 0.3 1009281
02:30+23всв227999 0.0 1007236
05:30+24юв1174100 0.0 1008184
08:30+25юв3376100 0.0 1010410
11:30+27ю347398 0.0 1009741
14:30+28юз4566100 0.0 1007956
17:30+28юз4568100 0.0 1007910
20:30+28юз567457 0.0 1008712
22 мая, вс
вс2223:30+28зюз567837 0.3 1007663
02:30+28зюз677937 3.3 1006613
05:30+28з578135 5.8 1006595
08:30+28з567940 3.0 1007677
11:30+29зюз667789 6.3 1007662
14:30+29зюз677493 0.9 1005830
17:30+29зюз677588 1.9 1005792
20:30+28юз577992 0.8 1006504
23 мая, пн
пн2323:30+28зюз567993 2.4 1006533
02:30+28з678079 1.3 1004629
05:30+28з568151 2.8 1005615
08:30+29зсз567724 0.8 1006798
11:30+30з567617 1.6 1006762
14:30+30з55747 0.7 1005815
17:30+29з567567 1.3 1005740
20:30+28зсз4679100 2.5 1006461
24 мая, вт
вт2423:30+28з4580100 4.8 1007493
02:30+28зсз4579100 0.8 1006572
05:30+28сз3579100 1.6 1006488
08:30+29зсз3573100 0.3 1008620
11:30+30з456655 0.3 1008646
14:30+30зюз456651 0.0 1006695
17:30+30з34705 0.1 1006664
20:30+29сз22764 0.2 100837